| time (UTC) | temp F | wind direction | speed MPH | gust MPH | rain 1hr in | rain 24hr in | rain mn in | humidity % | barometer mb |
| 20260906230041 | 76 | 290 | 6.0 | 9.0 | 0.00 | 0.00 | 0.00 | 33 | 1024.4 |
| 20260906224536 | 76 | 256 | 6.0 | 13.0 | 0.00 | 0.00 | 0.00 | 35 | 1024.4 |
| 20260906223048 | 76 | 261 | 11.0 | 16.0 | 0.00 | 0.00 | 0.00 | 34 | 1024.5 |
| 20260906221535 | 76 | 238 | 9.0 | 14.0 | 0.00 | 0.00 | 0.00 | 34 | 1024.6 |
| 20260906220032 | 77 | 267 | 8.0 | 15.0 | 0.00 | 0.00 | 0.00 | 34 | 1024.6 |
| 20260906214541 | 77 | 226 | 7.0 | 14.0 | 0.00 | 0.00 | 0.00 | 33 | 1024.6 |
| 20260906213037 | 77 | 236 | 2.0 | 7.0 | 0.00 | 0.00 | 0.00 | 32 | 1024.6 |
| 20260906211536 | 77 | 346 | 2.0 | 7.0 | 0.00 | 0.00 | 0.00 | 31 | 1024.7 |
| 20260906210038 | 77 | 247 | 5.0 | 10.0 | 0.00 | 0.00 | 0.00 | 30 | 1024.8 |
| 20260906204532 | 78 | 327 | 3.0 | 9.0 | 0.00 | 0.00 | 0.00 | 30 | 1024.9 |
| 20260906203035 | 77 | 329 | 1.0 | 9.0 | 0.00 | 0.00 | 0.00 | 30 | 1025.2 |
| 20260906201558 | 77 | 276 | 1.0 | 6.0 | 0.00 | 0.00 | 0.00 | 29 | 1025.3 |
| 20260906200032 | 77 | 77 | 3.0 | 7.0 | 0.00 | 0.00 | 0.00 | 32 | 1025.6 |
| 20260906194534 | 77 | 249 | 3.0 | 9.0 | 0.00 | 0.00 | 0.00 | 30 | 1025.6 |
| 20260906193040 | 80 | 207 | 6.0 | 14.0 | 0.00 | 0.00 | 0.00 | 27 | 1025.6 |
| 20260906191534 | 80 | 157 | 7.0 | 14.0 | 0.00 | 0.00 | 0.00 | 29 | 1025.8 |
| 20260906190036 | 79 | 28 | 2.0 | 13.0 | 0.00 | 0.00 | 0.00 | 29 | 1025.9 |
| 20260906184536 | 76 | 31 | 0.0 | 7.0 | 0.00 | 0.00 | 0.00 | 30 | 1026.1 |
| 20260906183034 | 75 | 256 | 3.0 | 10.0 | 0.00 | 0.00 | 0.00 | 30 | 1026.4 |
| 20260906181544 | 75 | 223 | 7.0 | 11.0 | 0.00 | 0.00 | 0.00 | 31 | 1026.6 |
| 20260906180041 | 75 | 247 | 4.0 | 10.0 | 0.00 | 0.00 | 0.00 | 30 | 1026.9 |
| 20260906174535 | 77 | 256 | 5.0 | 12.0 | 0.00 | 0.00 | 0.00 | 29 | 1026.9 |
| 20260906173033 | 76 | 259 | 4.0 | 10.0 | 0.00 | 0.00 | 0.00 | 29 | 1027.1 |
| 20260906171534 | 74 | 248 | 3.0 | 8.0 | 0.00 | 0.00 | 0.00 | 32 | 1027.3 |
| 20260906170036 | 74 | 148 | 2.0 | 5.0 | 0.00 | 0.00 | 0.00 | 29 | 1027.2 |
| 20260906164533 | 75 | 192 | 1.0 | 7.0 | 0.00 | 0.00 | 0.00 | 30 | 1027.3 |
| 20260906163045 | 75 | 244 | 5.0 | 9.0 | 0.00 | 0.00 | 0.00 | 30 | 1027.2 |
| 20260906161536 | 75 | 227 | 3.0 | 10.0 | 0.00 | 0.00 | 0.00 | 29 | 1027.2 |
| 20260906160035 | 74 | 178 | 3.0 | 8.0 | 0.00 | 0.00 | 0.00 | 26 | 1027.1 |
| 20260906154537 | 74 | 221 | 4.0 | 8.0 | 0.00 | 0.00 | 0.00 | 28 | 1027.2 |
| 20260906153032 | 73 | 182 | 2.0 | 7.0 | 0.00 | 0.00 | 0.00 | 31 | 1027.1 |
| 20260906151537 | 72 | 238 | 2.0 | 4.0 | 0.00 | 0.00 | 0.00 | 30 | 1027.2 |
| 20260906150034 | 70 | 0 | 0.0 | 4.0 | 0.00 | 0.00 | 0.00 | 30 | 1027.2 |
| 20260906144538 | 66 | 36 | 3.0 | 5.0 | 0.00 | 0.00 | 0.00 | 41 | 1027.1 |
| 20260906143036 | 66 | 54 | 5.0 | 10.0 | 0.00 | 0.00 | 0.00 | 40 | 1027.1 |
| 20260906141538 | 65 | 51 | 6.0 | 9.0 | 0.00 | 0.00 | 0.00 | 41 | 1027.1 |
| 20260906140037 | 62 | 50 | 3.0 | 6.0 | 0.00 | 0.00 | 0.00 | 47 | 1027.1 |
| 20260906134532 | 59 | 56 | 5.0 | 9.0 | 0.00 | 0.00 | 0.00 | 49 | 1027.2 |
| 20260906133044 | 57 | 57 | 6.0 | 10.0 | 0.00 | 0.00 | 0.00 | 50 | 1027.1 |
| 20260906131535 | 55 | 61 | 5.0 | 9.0 | 0.00 | 0.00 | 0.00 | 52 | 1026.9 |
| 20260906130036 | 55 | 50 | 10.0 | 13.0 | 0.00 | 0.00 | 0.00 | 49 | 1026.6 |
| 20260906124532 | 55 | 57 | 7.0 | 10.0 | 0.00 | 0.00 | 0.00 | 50 | 1026.5 |
| 20260906123043 | 55 | 34 | 6.0 | 9.0 | 0.00 | 0.00 | 0.00 | 47 | 1026.5 |
| 20260906121544 | 55 | 61 | 6.0 | 10.0 | 0.00 | 0.00 | 0.00 | 48 | 1026.4 |
| 20260906120032 | 56 | 45 | 7.0 | 13.0 | 0.00 | 0.00 | 0.00 | 46 | 1026.3 |
| 20260906114537 | 56 | 47 | 10.0 | 11.0 | 0.00 | 0.00 | 0.00 | 45 | 1026.3 |
| 20260906113037 | 55 | 45 | 8.0 | 11.0 | 0.00 | 0.00 | 0.00 | 45 | 1026.4 |
| 20260906111533 | 56 | 62 | 6.0 | 9.0 | 0.00 | 0.00 | 0.00 | 46 | 1026.3 |
| 20260906110030 | 55 | 72 | 4.0 | 9.0 | 0.00 | 0.00 | 0.00 | 46 | 1026.3 |
| 20260906104536 | 56 | 32 | 9.0 | 11.0 | 0.00 | 0.00 | 0.00 | 43 | 1026.1 |
| 20260906103032 | 56 | 22 | 8.0 | 11.0 | 0.00 | 0.00 | 0.00 | 44 | 1026.2 |
| 20260906101531 | 56 | 25 | 9.0 | 11.0 | 0.00 | 0.00 | 0.00 | 44 | 1026.1 |
| 20260906100040 | 56 | 22 | 9.0 | 11.0 | 0.00 | 0.00 | 0.00 | 43 | 1026.1 |
| 20260906094535 | 57 | 21 | 9.0 | 11.0 | 0.00 | 0.00 | 0.00 | 41 | 1026.2 |
| 20260906093046 | 58 | 27 | 9.0 | 12.0 | 0.00 | 0.00 | 0.00 | 40 | 1026.1 |
| 20260906091534 | 57 | 28 | 9.0 | 12.0 | 0.00 | 0.00 | 0.00 | 40 | 1026.1 |
| 20260906090036 | 58 | 19 | 9.0 | 11.0 | 0.00 | 0.00 | 0.00 | 39 | 1026.3 |
| 20260906084533 | 58 | 26 | 9.0 | 12.0 | 0.00 | 0.00 | 0.00 | 39 | 1026.3 |
| 20260906083033 | 58 | 26 | 10.0 | 13.0 | 0.00 | 0.00 | 0.00 | 39 | 1026.4 |
| 20260906081549 | 59 | 21 | 10.0 | 13.0 | 0.00 | 0.00 | 0.00 | 38 | 1026.5 |
| 20260906080036 | 59 | 29 | 10.0 | 14.0 | 0.00 | 0.00 | 0.00 | 38 | 1026.6 |
| 20260906074536 | 60 | 24 | 12.0 | 15.0 | 0.00 | 0.00 | 0.00 | 37 | 1026.6 |
| 20260906073047 | 59 | 26 | 11.0 | 15.0 | 0.00 | 0.00 | 0.00 | 39 | 1026.5 |
| 20260906071533 | 58 | 31 | 10.0 | 14.0 | 0.00 | 0.00 | 0.00 | 40 | 1026.6 |
| 20260906070039 | 58 | 24 | 10.0 | 13.0 | 0.00 | 0.00 | 0.00 | 41 | 1026.6 |
| 20260906064534 | 59 | 26 | 10.0 | 12.0 | 0.00 | 0.00 | 0.00 | 41 | 1026.7 |
| 20260906063035 | 58 | 25 | 9.0 | 12.0 | 0.00 | 0.00 | 0.00 | 43 | 1026.6 |
| 20260906061534 | 58 | 21 | 9.0 | 11.0 | 0.00 | 0.00 | 0.00 | 43 | 1026.6 |
| 20260906060035 | 58 | 25 | 9.0 | 12.0 | 0.00 | 0.00 | 0.00 | 43 | 1026.7 |
| 20260906054533 | 58 | 24 | 10.0 | 12.0 | 0.00 | 0.00 | 0.00 | 44 | 1026.8 |
| 20260906053038 | 58 | 28 | 10.0 | 12.0 | 0.00 | 0.00 | 0.00 | 45 | 1026.9 |
| 20260906051535 | 58 | 24 | 10.0 | 13.0 | 0.00 | 0.00 | 0.00 | 47 | 1026.8 |
| 20260906050050 | 57 | 26 | 9.0 | 11.0 | 0.00 | 0.00 | 0.00 | 48 | 1026.9 |
| 20260906044535 | 55 | 26 | 8.0 | 10.0 | 0.00 | 0.00 | 0.00 | 53 | 1027.0 |
| 20260906043042 | 56 | 16 | 9.0 | 11.0 | 0.00 | 0.00 | 0.00 | 52 | 1027.0 |
| 20260906041533 | 57 | 20 | 8.0 | 10.0 | 0.00 | 0.00 | 0.00 | 50 | 1027.1 |
| 20260906040043 | 57 | 15 | 9.0 | 11.0 | 0.00 | 0.00 | 0.00 | 51 | 1027.0 |
| 20260906034535 | 57 | 31 | 9.0 | 11.0 | 0.00 | 0.00 | 0.00 | 51 | 1027.0 |
| 20260906033032 | 57 | 19 | 8.0 | 10.0 | 0.00 | 0.00 | 0.00 | 50 | 1026.9 |
| 20260906031531 | 58 | 19 | 7.0 | 11.0 | 0.00 | 0.00 | 0.00 | 48 | 1026.7 |
| 20260906030033 | 62 | 12 | 6.0 | 8.0 | 0.00 | 0.00 | 0.00 | 41 | 1026.6 |
| 20260906024536 | 65 | 5 | 5.0 | 9.0 | 0.00 | 0.00 | 0.00 | 36 | 1026.5 |
| 20260906023049 | 66 | 340 | 4.0 | 8.0 | 0.00 | 0.00 | 0.00 | 35 | 1026.1 |
| 20260906021535 | 67 | 338 | 5.0 | 11.0 | 0.00 | 0.00 | 0.00 | 35 | 1026.1 |
| 20260906020036 | 68 | 331 | 4.0 | 11.0 | 0.00 | 0.00 | 0.00 | 35 | 1026.0 |
| 20260906014543 | 69 | 284 | 5.0 | 10.0 | 0.00 | 0.00 | 0.00 | 35 | 1025.9 |
| 20260906013034 | 71 | 271 | 5.0 | 12.0 | 0.00 | 0.00 | 0.00 | 33 | 1025.8 |
| 20260906011544 | 72 | 252 | 6.0 | 12.0 | 0.00 | 0.00 | 0.00 | 33 | 1025.8 |
| 20260906010036 | 72 | 257 | 10.0 | 16.0 | 0.00 | 0.00 | 0.00 | 33 | 1025.8 |
| 20260906004535 | 74 | 246 | 10.0 | 18.0 | 0.00 | 0.00 | 0.00 | 33 | 1025.8 |
| 20260906003036 | 74 | 266 | 9.0 | 14.0 | 0.00 | 0.00 | 0.00 | 33 | 1025.8 |
| 20260906001534 | 75 | 232 | 7.0 | 15.0 | 0.00 | 0.00 | 0.00 | 34 | 1025.6 |
| 20260906000038 | 76 | 232 | 8.0 | 15.0 | 0.00 | 0.00 | 0.00 | 32 | 1025.6 |
| 20260905234545 | 76 | 240 | 8.0 | 16.0 | 0.00 | 0.00 | 0.00 | 31 | 1025.5 |
| 20260905233034 | 77 | 234 | 4.0 | 14.0 | 0.00 | 0.00 | 0.00 | 30 | 1025.5 |
| 20260905231535 | 77 | 246 | 5.0 | 18.0 | 0.00 | 0.00 | 0.00 | 32 | 1025.5 |